Location: München
(48.1371°N, 11.5754°E)
Time: 17:21:42
(UTC+02:00)

ISS - Visible Passes

Search period start: 25 October 2021 00:00
Search period end: 03 November 2021 23:00
Orbit: 417 x 423 km, 51.6° (Epoch: 25 October)

Date Brightness Start Highest point End Pass type
(mag) Time Alt. Az. Time Alt. Az. Time Alt. Az.
25 Oct -2.9 06:17:50 20° SW 06:19:51 47° SSE 06:23:07 10° ENE visible
26 Oct -2.2 05:32:54 31° SE 05:32:54 31° SE 05:35:45 10° E visible
26 Oct -3.7 07:06:01 10° W 07:09:23 65° NNW 07:12:45 10° ENE visible
27 Oct -0.4 04:47:50 12° E 04:47:50 12° E 04:48:14 10° E visible
27 Oct -3.8 06:20:50 35° WSW 06:22:06 85° NNW 06:25:29 10° ENE visible
28 Oct -2.7 05:35:40 46° E 05:35:40 46° E 05:38:13 10° ENE visible
28 Oct -3.2 07:08:40 11° W 07:11:49 46° N 07:15:06 10° ENE visible
29 Oct -0.4 04:50:27 13° ENE 04:50:27 13° ENE 04:50:55 10° ENE visible
29 Oct -3.4 06:23:26 36° WNW 06:24:28 53° NNW 06:27:48 10° ENE visible
30 Oct -2.5 05:38:09 40° NE 05:38:09 40° NE 05:40:31 10° ENE visible
30 Oct -3.1 07:11:08 11° WNW 07:14:17 44° N 07:17:32 10° ENE visible
31 Oct -0.4 03:52:51 13° ENE 03:52:51 13° ENE 03:53:14 10° ENE visible
31 Oct -3.1 05:25:49 32° NW 05:26:55 44° N 05:30:10 10° ENE visible
01 Nov -2.3 04:40:29 35° NE 04:40:29 35° NE 04:42:48 10° ENE visible
01 Nov -3.3 06:13:28 11° WNW 06:16:41 55° NNE 06:20:01 10° E visible
02 Nov -0.4 03:55:08 12° ENE 03:55:08 12° ENE 03:55:29 10° ENE visible
02 Nov -3.2 05:28:07 31° NW 05:29:20 48° N 05:32:36 10° E visible
03 Nov -2.4 04:42:46 36° NE 04:42:46 36° NE 04:45:12 10° ENE visible
03 Nov -3.8 06:15:44 11° WNW 06:18:59 89° SSW 06:22:21 10° ESE visible
